sat.trackr.live / text

‹ back to catalog

2025-234B

NORAD 66054 · 2025-234B

PAYLOAD ACTIVE UNKNOWN

§ Identity

Operator
Country
PAKI
Launch date
2025-10-19
Launch site
JSC
Launch vehicle
Mass (kg)
RCS (m²)

External: N2YO · Heavens-Above · Gunter

§ Orbital elements

Epoch: 2026-05-25T02:30:25.915968Z

Period
94.69 min
Inclination
97.4768°
Eccentricity
0.0011687
Mean motion
15.20767763 rev/d
Perigee alt
495.5 km
Apogee alt
511.6 km
Semi-major
6,881.7 km
B*
2.1426e-4
RAAN
214.5144°
Arg perigee
166.7145°
Mean anomaly
193.4400°
Rev number
3,313

§ Raw data

2025-234B1 66054U 25234B   26145.10446662  .00004657  00000+0  21426-3 0  99932 66054  97.4768 214.5144 0011687 166.7145 193.4400 15.20767763 33133

JSON: /api/v1/satellites/66054 · /tle

For live sub-satellite position, see the globe view (requires WebGL).

§ Visibility from observer

Set your observer location to see the next 7 days of passes ≥ 10°. The values pass through the URL so the page stays shareable.

No JS? Fill the form by hand. The geolocation button needs JavaScript.

§ Radio — SatNOGS DB

ModeDescriptionDownlinkUplink
FM S-band telemetry 2.231 GHz

1 transmitter · refreshed weekly from db.satnogs.org